Birmingham, United Kingdom

6:40 AM BST on May 28, 2017 (GMT +0100)
Birmingham

Weather History for EGBB - October, 2012

Change the Weather History Date:

Tuesday, October 9, 2012

  Actual Average Record
Temperature  
Mean Temperature 47 °F -  
Max Temperature 53 °F 55 °F 68 °F (2011)
Min Temperature 41 °F 41 °F 33 °F (1998)
Degree Days  
Heating Degree Days 18    
Moisture  
Dew Point 43 °F    
Average Humidity 82    
Maximum Humidity 100    
Minimum Humidity 67    
Precipitation  
Precipitation 0.00 in 0.07 in - ()
Sea Level Pressure  
Sea Level Pressure 30.02 in    
Wind  
Wind Speed 6 mph ()    
Max Wind Speed 10 mph    
Max Gust Speed -    
Visibility 5.2 miles    
Events      
Averages and records for this station are not official NWS values.
T = Trace of Precipitation, MM = Missing Value Source: Averaged Metar Reports

Daily Weather History Graph

Daily Weather History Graph

Search for Another Location

Airport or City:

Trip Planner

Search our weather history database for the weather conditions in past years. The results will help you decide how hot, cold, wet, or windy it might be!

Date:

Astronomy

Oct. 09, 2012 Rise Set
Actual Time 7:22 AM BST 6:24 PM BST
Civil Twilight 6:48 AM BST 6:58 PM BST
Nautical Twilight 6:08 AM BST 7:38 PM BST
Astronomical Twilight 5:28 AM BST 8:18 PM BST
Moon No Moon Rise 3:25 PM BST (10/9)
Length of Visible Light 12h 10m
Length of Day
11h 02m
Last Quarter, 39% of the Moon is Illuminated
Oct 9
Last Quarter
Oct 15
New
Oct 22
First Quarter
Oct 29
Full
Nov 7
Last Quarter

Hourly Weather History & Observations

Time (BST) Temp. Windchill Dew Point Humidity Pressure Visibility Wind Dir Wind Speed Gust Speed Precip Events Conditions
12:20 AM 48.2 °F - 46.4 °F 93% 29.98 in 1.4 mi North 8.1 mph - N/A   Overcast
12:50 AM 48.2 °F - 46.4 °F 93% 29.98 in 1.4 mi NNE 5.8 mph - N/A   Overcast
1:20 AM 48.2 °F - 46.4 °F 93% 29.98 in 1.7 mi NNE 6.9 mph - N/A   Mostly Cloudy
1:50 AM 48.2 °F - 46.4 °F 93% 29.98 in 1.8 mi NNE 5.8 mph - N/A   Mostly Cloudy
2:20 AM 46.4 °F 42.4 °F 46.4 °F 100% 29.98 in - NNE 8.1 mph - N/A   Haze
2:50 AM 46.4 °F 42.4 °F 44.6 °F 93% 29.98 in - NNE 8.1 mph - N/A   Haze
3:20 AM 46.4 °F 42.9 °F 44.6 °F 93% 29.98 in - NNE 6.9 mph - N/A   Haze
3:50 AM 48.2 °F - 46.4 °F 93% 29.98 in - NE 4.6 mph - N/A   Haze
4:20 AM 48.2 °F - 44.6 °F 87% 30.01 in - NNE 8.1 mph - N/A   Haze
4:50 AM 46.4 °F 42.4 °F 44.6 °F 93% 30.01 in 3.1 mi NNE 8.1 mph - N/A   Overcast
5:20 AM 46.4 °F 42.9 °F 44.6 °F 93% 30.01 in 3.1 mi ENE 6.9 mph - N/A   Overcast
5:50 AM 46.4 °F 42.4 °F 44.6 °F 93% 30.01 in 4.3 mi ENE 8.1 mph - N/A   Mostly Cloudy
6:20 AM 46.4 °F 41.9 °F 42.8 °F 87% 30.01 in 5.6 mi NE 9.2 mph - N/A   Scattered Clouds
6:50 AM 46.4 °F 43.5 °F 42.8 °F 87% 30.01 in 6.2 mi East 5.8 mph - N/A   Mostly Cloudy
7:20 AM 44.6 °F 42.2 °F 42.8 °F 93% 30.01 in 4.3 mi NNE 4.6 mph - N/A   Mostly Cloudy
7:50 AM 42.8 °F 41.1 °F 41.0 °F 93% 30.04 in 2.8 mi North 3.5 mph - N/A   Partly Cloudy
8:20 AM 41.0 °F - 41.0 °F 100% 30.04 in 3.7 mi North 2.3 mph - N/A   Unknown
8:50 AM 42.8 °F - 41.0 °F 93% 30.04 in 4.3 mi North 2.3 mph - N/A   Partly Cloudy
9:20 AM 46.4 °F 45.2 °F 42.8 °F 87% 30.04 in 4.3 mi North 3.5 mph - N/A   Partly Cloudy
9:50 AM 46.4 °F 44.3 °F 42.8 °F 87% 30.06 in 6.2 mi ENE 4.6 mph - N/A   Scattered Clouds
10:20 AM 48.2 °F - 44.6 °F 87% 30.06 in 6.2 mi ENE 5.8 mph - N/A   Partly Cloudy
10:50 AM 50.0 °F - 44.6 °F 82% 30.06 in 6.2 mi East 8.1 mph - N/A   Partly Cloudy
11:20 AM 50.0 °F - 44.6 °F 82% 30.06 in 6.2 mi East 8.1 mph - N/A   Scattered Clouds
11:50 AM 51.8 °F - 44.6 °F 76% 30.06 in 6.2 mi East 9.2 mph - N/A   Mostly Cloudy
12:20 PM 51.8 °F - 44.6 °F 76% 30.06 in 6.2 mi East 8.1 mph - N/A   Mostly Cloudy
12:50 PM 51.8 °F - 44.6 °F 76% 30.04 in 6.2 mi East 6.9 mph - N/A   Mostly Cloudy
1:20 PM 51.8 °F - 42.8 °F 71% 30.04 in 6.2 mi East 10.4 mph - N/A   Mostly Cloudy
1:50 PM 51.8 °F - 42.8 °F 71% 30.04 in 6.2 mi East 6.9 mph - N/A   Mostly Cloudy
2:20 PM 53.6 °F - 42.8 °F 67% 30.04 in 6.2 mi East 6.9 mph - N/A   Scattered Clouds
3:20 PM 53.6 °F - 42.8 °F 67% 30.04 in 6.2 mi East 6.9 mph - N/A   Scattered Clouds
3:50 PM 53.6 °F - 42.8 °F 67% 30.04 in 6.2 mi ESE 8.1 mph - N/A   Scattered Clouds
4:20 PM 53.6 °F - 42.8 °F 67% 30.04 in 6.2 mi East 8.1 mph - N/A   Scattered Clouds
4:50 PM 51.8 °F - 42.8 °F 71% 30.01 in 6.2 mi East 6.9 mph - N/A   Mostly Cloudy
5:20 PM 51.8 °F - 42.8 °F 71% 30.01 in 6.2 mi East 5.8 mph - N/A   Partly Cloudy
5:50 PM 51.8 °F - 42.8 °F 71% 30.01 in 6.2 mi East 5.8 mph - N/A   Partly Cloudy
6:20 PM 50.0 °F - 41.0 °F 71% 30.01 in - East 5.8 mph - N/A   Clear
6:50 PM 48.2 °F - 41.0 °F 76% 30.01 in - East 4.6 mph - N/A   Clear
7:20 PM 48.2 °F - 42.8 °F 82% 30.04 in - East 6.9 mph - N/A   Clear
7:50 PM 48.2 °F - 41.0 °F 76% 30.04 in 6.2 mi East 5.8 mph - N/A   Partly Cloudy
8:20 PM 48.2 °F - 41.0 °F 76% 30.04 in 6.2 mi East 6.9 mph - N/A   Scattered Clouds
8:50 PM 48.2 °F - 41.0 °F 76% 30.04 in 6.2 mi East 6.9 mph - N/A   Mostly Cloudy
9:20 PM 48.2 °F - 41.0 °F 76% 30.04 in 6.2 mi East 6.9 mph - N/A   Mostly Cloudy
9:50 PM 48.2 °F - 41.0 °F 76% 30.04 in 6.2 mi East 6.9 mph - N/A   Mostly Cloudy
10:20 PM 48.2 °F - 41.0 °F 76% 30.04 in 6.2 mi SE 4.6 mph - N/A   Mostly Cloudy
10:50 PM 48.2 °F - 41.0 °F 76% 30.04 in 6.2 mi East 4.6 mph - N/A   Mostly Cloudy
11:20 PM 48.2 °F - 41.0 °F 76% 30.04 in 6.2 mi ESE 3.5 mph - N/A   Mostly Cloudy
11:50 PM 48.2 °F - 41.0 °F 76% 30.04 in 6.2 mi East 4.6 mph - N/A   Mostly Cloudy